Vancouver, WA
on Wednesday, January 9, 2013

Wednesday
Previous Day Next Day
Daily Summary
 ActualAverageRecord
Temperature
Mean Temperature °F 41°F  
Max Temperature 54°F 47°F 57°F (1953)
Min Temperature 34°F 35°F 4°F (1909)
Degree Days
Heating Degree Days 21    
Month to date heating degree days 239  
Since 1 July heating degree days 1787  
Cooling Degree Days 0    
Month to date cooling degree days 0  
Year to date cooling degree days 0  
Moisture
Dew Point 38°F   
Average Humidity 79    
Maximum Humidity 93    
Minimum Humidity 64    
Precipitation
Precipitation 0.23 in 0.20 in 1.12 in (1959)
Month to date precipitation 0.72 1.81  
Year to date precipitation 0.72 1.81  
Snow
Snow 0.00 in in in ()
Month to date snowfall 0.0  
Snow Depth 0.00 in   
Wind
Wind Speed 4 mph   
Max Wind Speed 17 mph   
Max Gust Speed 26 mph   
Visibility 10 miles   
Events Rain   

Key: T is trace of precipitation, MM is missing value
Source: NWS Daily Summary
Time(PST)TemperatureDew PointHumidity Pressure Visibility Wind DirectionWind SpeedGust SpeedPrecipitationEvents Conditions
12:53 AM 54.0°F 41.0°F 62% 29.90 in 10.0 miles South 13.8 mph 20.7 mph N/A   Clear
1:53 AM 53.1°F 41.0°F 64% 29.87 in 10.0 miles SSW 8.1 mph 17.3 mph N/A   Clear
2:53 AM 53.1°F 41.0°F 64% 29.84 in 10.0 miles South 13.8 mph 26.5 mph N/A   Clear
3:53 AM 51.1°F 42.1°F 71% 29.81 in 10.0 miles South 8.1 mph - N/A   Partly Cloudy
4:53 AM 51.1°F 42.1°F 71% 29.76 in 10.0 miles South 5.8 mph - N/A   Mostly Cloudy
5:53 AM 51.1°F 42.1°F 71% 29.71 in 10.0 miles South 8.1 mph 19.6 mph N/A   Overcast
6:53 AM 50.0°F 43.0°F 77% 29.73 in 9.0 miles SSW 10.4 mph 23.0 mph 0.02 in Rain Light Rain
7:35 AM 42.8°F 37.4°F 81% 29.76 in 10.0 miles NNW 10.4 mph 18.4 mph 0.04 in Rain Light Rain
7:53 AM 43.0°F 37.9°F 82% 29.78 in 10.0 miles NNW 8.1 mph - 0.04 in Rain Light Rain
8:13 AM 42.8°F 37.4°F 81% 29.80 in 10.0 miles NNW 5.8 mph - 0.01 in Rain Light Rain
8:53 AM 41.0°F 39.0°F 93% 29.83 in 5.0 miles NNW 3.5 mph - 0.05 in Rain Light Rain
9:39 AM 41.0°F 39.2°F 93% 29.87 in 7.0 miles Calm Calm - 0.05 in Rain Light Rain
9:53 AM 42.1°F 39.9°F 92% 29.87 in 10.0 miles Calm Calm - 0.06 in Rain Light Rain
10:27 AM 42.8°F 39.2°F 87% 29.88 in 10.0 miles Calm Calm - 0.00 in Rain Light Rain
10:41 AM 42.8°F 39.2°F 87% 29.88 in 10.0 miles Calm Calm - 0.01 in Rain Light Rain
10:53 AM 42.1°F 39.9°F 92% 29.88 in 10.0 miles Calm Calm - 0.01 in Rain Light Rain
11:53 AM 42.1°F 37.9°F 85% 29.89 in 10.0 miles Calm Calm - 0.02 in Rain Light Rain
12:27 PM 42.8°F 37.4°F 81% 29.89 in 10.0 miles Variable 4.6 mph - 0.02 in Rain Light Rain
12:40 PM 42.8°F 37.4°F 81% 29.89 in 10.0 miles SW 3.5 mph - 0.02 in Rain Light Rain
12:53 PM 43.0°F 37.9°F 82% 29.89 in 10.0 miles SSW 3.5 mph - 0.02 in Rain Light Rain
1:02 PM 42.8°F 37.4°F 81% 29.90 in 10.0 miles SW 3.5 mph - 0.00 in   Overcast
1:25 PM 42.8°F 37.4°F 81% 29.91 in 10.0 miles Variable 3.5 mph - 0.00 in Rain Light Rain
1:35 PM 42.8°F 37.4°F 81% 29.91 in 10.0 miles SW 3.5 mph - 0.00 in Rain Light Rain
1:53 PM 43.0°F 37.9°F 82% 29.91 in 10.0 miles SSW 3.5 mph - 0.00 in Rain Light Rain
2:32 PM 42.8°F 35.6°F 76% 29.92 in 10.0 miles SW 3.5 mph - 0.01 in   Overcast
2:53 PM 44.1°F 36.0°F 73% 29.93 in 10.0 miles Calm Calm - 0.01 in   Overcast
3:53 PM 43.0°F 37.0°F 80% 29.94 in 10.0 miles Calm Calm - 0.00 in   Partly Cloudy
4:53 PM 42.1°F 36.0°F 79% 29.95 in 10.0 miles SW 3.5 mph - N/A   Partly Cloudy
5:53 PM 39.0°F 35.1°F 86% 29.96 in 10.0 miles Calm Calm - N/A   Mostly Cloudy
6:53 PM 39.9°F 35.1°F 83% 29.96 in 10.0 miles Calm Calm - N/A   Overcast
7:53 PM 39.0°F 35.1°F 86% 29.97 in 10.0 miles Calm Calm - N/A   Partly Cloudy
8:53 PM 37.0°F 34.0°F 89% 29.98 in 10.0 miles Calm Calm - N/A   Partly Cloudy
9:53 PM 36.0°F 33.1°F 89% 29.99 in 10.0 miles Calm Calm - 0.00 in   Mostly Cloudy
10:53 PM 35.1°F 33.1°F 92% 30.00 in 10.0 miles Calm Calm - N/A   Overcast
11:53 PM 34.0°F 33.1°F 96% 30.00 in 9.0 miles Calm Calm - 0.00 in   Mostly Cloudy
Moon Phase
Jan. 09 Jan. 11 Jan. 18 Jan. 26 Feb. 03
Sunrise:07:49 AM (PST) Moon Rise:05:35 AM (PST)1/9
Sunset:04:46 PM (PST) Moon Set:02:53 PM (PST)1/9

Copyright © 2014 The Weather Underground, Inc.